Radiation Dose at Monitoring Post of Fukushima Daini Nuclear Power Station
Date,Time,MP-1(microSv/h),MP-2(microSv/h),MP-3(microSv/h),MP-4(microSv/h),MP-5(microSv/h),MP-6(microSv/h),MP-7(microSv/h),Wind Direction,Wind Velocity(m/s),Rain
2018/04/19,00:00,0.311,0.194,0.314,0.299,0.297,0.159,0.097,northwest,3.3,No
2018/04/19,00:10,0.311,0.195,0.314,0.300,0.297,0.159,0.097,north-northwest,4.5,No
2018/04/19,00:20,0.311,0.194,0.316,0.301,0.296,0.159,0.096,north-northwest,4.0,No
2018/04/19,00:30,0.311,0.195,0.315,0.299,0.296,0.159,0.096,north-northwest,3.8,No
2018/04/19,00:40,0.310,0.195,0.314,0.300,0.298,0.159,0.096,northwest,3.0,No
2018/04/19,00:50,0.313,0.195,0.315,0.301,0.295,0.158,0.096,west-northwest,2.5,No
2018/04/19,01:00,0.310,0.195,0.314,0.299,0.295,0.158,0.096,west-northwest,1.1,No
2018/04/19,01:10,0.310,0.196,0.313,0.300,0.296,0.158,0.096,northwest,1.2,No
2018/04/19,01:20,0.312,0.194,0.316,0.300,0.296,0.158,0.096,west-northwest,1.6,No
2018/04/19,01:30,0.310,0.195,0.314,0.299,0.297,0.158,0.096,west-northwest,3.0,No
2018/04/19,01:40,0.310,0.194,0.314,0.300,0.296,0.158,0.096,west-southwest,2.5,No
2018/04/19,01:50,0.310,0.193,0.315,0.299,0.294,0.158,0.096,southwest,2.7,No
2018/04/19,02:00,0.310,0.195,0.314,0.298,0.297,0.158,0.096,southwest,2.8,No
2018/04/19,02:10,0.310,0.194,0.315,0.299,0.295,0.158,0.096,south-southwest,2.4,No
2018/04/19,02:20,0.311,0.194,0.315,0.301,0.295,0.157,0.096,southwest,1.6,No
2018/04/19,02:30,0.312,0.196,0.316,0.300,0.296,0.158,0.096,south-southwest,1.6,No
2018/04/19,02:40,0.310,0.195,0.314,0.300,0.294,0.157,0.097,west-southwest,1.4,No
2018/04/19,02:50,0.311,0.194,0.315,0.301,0.295,0.157,0.096,-,CALM,No
2018/04/19,03:00,0.310,0.195,0.315,0.300,0.297,0.157,0.095,west-northwest,1.0,No
2018/04/19,03:10,0.311,0.194,0.314,0.300,0.294,0.158,0.096,north-northwest,1.1,No
2018/04/19,03:20,0.312,0.194,0.315,0.299,0.296,0.158,0.095,north,1.1,No
2018/04/19,03:30,0.310,0.194,0.316,0.299,0.296,0.158,0.095,north,1.1,No
2018/04/19,03:40,0.311,0.194,0.314,0.301,0.295,0.158,0.096,north,1.1,No
2018/04/19,03:50,0.311,0.195,0.315,0.301,0.295,0.158,0.095,north,1.4,No
2018/04/19,04:00,0.310,0.194,0.315,0.301,0.296,0.158,0.097,north-northeast,1.0,No
2018/04/19,04:10,0.311,0.196,0.315,0.299,0.295,0.158,0.096,north,1.6,No
2018/04/19,04:20,0.311,0.195,0.315,0.299,0.296,0.159,0.096,north-northwest,2.2,No
2018/04/19,04:30,0.310,0.194,0.316,0.301,0.295,0.158,0.096,north-northwest,1.8,No
2018/04/19,04:40,0.310,0.195,0.315,0.300,0.294,0.157,0.096,northwest,2.8,No
2018/04/19,04:50,0.311,0.194,0.315,0.299,0.295,0.158,0.096,north-northwest,2.7,No
2018/04/19,05:00,0.311,0.193,0.316,0.299,0.296,0.158,0.096,west,0.8,No
2018/04/19,05:10,0.310,0.194,0.314,0.299,0.296,0.159,0.096,west-northwest,0.7,No
2018/04/19,05:20,0.310,0.194,0.313,0.300,0.295,0.159,0.095,northwest,0.6,No
2018/04/19,05:30,0.311,0.194,0.315,0.302,0.295,0.158,0.096,-,CALM,No
2018/04/19,05:40,0.311,0.194,0.316,0.299,0.295,0.158,0.095,north,2.0,No
2018/04/19,05:50,0.311,0.195,0.314,0.300,0.296,0.158,0.095,-,CALM,No
2018/04/19,06:00,0.311,0.194,0.316,0.301,0.294,0.158,0.095,north-northwest,0.8,No
2018/04/19,06:10,0.311,0.193,0.314,0.300,0.295,0.158,0.095,north,0.9,No
2018/04/19,06:20,0.311,0.195,0.314,0.299,0.296,0.158,0.094,-,CALM,No
2018/04/19,06:30,0.311,0.194,0.316,0.299,0.295,0.157,0.094,south-southwest,0.7,No
2018/04/19,06:40,0.309,0.194,0.314,0.300,0.296,0.157,0.095,south,1.3,No
2018/04/19,06:50,0.310,0.195,0.313,0.298,0.296,0.157,0.096,south-southeast,1.5,No
2018/04/19,07:00,0.311,0.194,0.316,0.300,0.294,0.157,0.095,southeast,1.2,No
2018/04/19,07:10,0.310,0.193,0.313,0.299,0.297,0.157,0.096,south-southeast,1.9,No
2018/04/19,07:20,0.312,0.194,0.314,0.299,0.294,0.157,0.095,south-southwest,2.0,No
2018/04/19,07:30,0.310,0.193,0.312,0.298,0.297,0.158,0.095,south-southwest,2.6,No
2018/04/19,07:40,0.309,0.194,0.315,0.300,0.295,0.158,0.096,south,2.3,No
2018/04/19,07:50,0.311,0.193,0.314,0.295,0.296,0.157,0.096,south,2.6,No
2018/04/19,08:00,0.310,0.194,0.315,0.300,0.296,0.158,0.096,south,2.4,No
2018/04/19,08:10,0.310,0.195,0.316,0.299,0.296,0.157,0.096,south-southeast,2.2,No
2018/04/19,08:20,0.309,0.193,0.314,0.299,0.295,0.159,0.096,south-southeast,2.1,No
2018/04/19,08:30,0.309,0.195,0.317,0.300,0.295,0.158,0.097,south-southeast,2.7,No
2018/04/19,08:40,0.310,0.193,0.314,0.299,0.293,0.159,0.096,south-southeast,3.2,No
2018/04/19,08:50,0.308,0.194,0.316,0.298,0.297,0.157,0.096,south-southeast,4.3,No
2018/04/19,09:00,0.311,0.194,0.316,0.301,0.293,0.157,0.096,south-southeast,4.1,No
2018/04/19,09:10,0.309,0.193,0.316,0.297,0.297,0.158,0.095,south-southeast,4.2,No
2018/04/19,09:20,0.308,0.195,0.314,0.297,0.296,0.158,0.095,south-southeast,4.3,No
2018/04/19,09:30,0.312,0.194,0.316,0.301,0.294,0.158,0.096,south-southeast,4.1,No
2018/04/19,09:40,0.310,0.195,0.316,0.300,0.298,0.158,0.096,south,2.8,No
2018/04/19,09:50,0.309,0.196,0.315,0.299,0.295,0.158,0.095,south,2.9,No
2018/04/19,10:00,0.312,0.194,0.317,0.302,0.297,0.159,0.096,south-southeast,4.1,No
2018/04/19,10:10,0.313,0.194,0.316,0.301,0.298,0.158,0.096,south-southwest,1.1,No
2018/04/19,10:20,0.310,0.196,0.316,0.300,0.296,0.159,0.095,south,2.3,No
2018/04/19,10:30,0.313,0.194,0.316,0.302,0.298,0.159,0.095,south-southeast,0.7,No
2018/04/19,10:40,0.313,0.195,0.314,0.301,0.296,0.158,0.096,south,4.4,No
2018/04/19,10:50,0.311,0.196,0.317,0.300,0.294,0.159,0.096,south,2.1,No
2018/04/19,11:00,0.309,0.195,0.315,0.302,0.300,0.159,0.097,south-southwest,0.9,No
2018/04/19,11:10,0.312,0.196,0.314,0.304,0.298,0.159,0.097,-,CALM,No
2018/04/19,11:20,0.313,0.194,0.316,0.301,0.294,0.159,0.096,south-southeast,2.8,No
2018/04/19,11:30,0.309,0.195,0.315,0.300,0.298,0.158,0.097,south,3.6,No
2018/04/19,11:40,0.309,0.197,0.314,0.304,0.298,0.158,0.096,south,4.8,No
2018/04/19,11:50,0.315,0.195,0.317,0.302,0.296,0.160,0.096,south,7.6,No
2018/04/19,12:00,0.314,0.194,0.317,0.300,0.298,0.158,0.096,south,7.6,No
2018/04/19,12:10,0.310,0.197,0.313,0.303,0.298,0.159,0.097,south-southeast,8.3,No
2018/04/19,12:20,0.310,0.195,0.316,0.304,0.295,0.159,0.096,south,8.8,No
2018/04/19,12:30,0.315,0.195,0.320,0.301,0.298,0.160,0.096,south,9.2,No
2018/04/19,12:40,0.313,0.197,0.316,0.302,0.298,0.159,0.097,south,9.0,No
2018/04/19,12:50,0.310,0.195,0.314,0.305,0.295,0.160,0.096,south,8.1,No
2018/04/19,13:00,0.314,0.196,0.317,0.303,0.299,0.159,0.096,south,7.6,No
2018/04/19,13:10,0.313,0.196,0.319,0.300,0.299,0.160,0.097,south,7.6,No
2018/04/19,13:20,0.312,0.196,0.317,0.303,0.295,0.160,0.095,south,8.4,No
2018/04/19,13:30,0.312,0.195,0.314,0.304,0.295,0.158,0.096,south,8.6,No
2018/04/19,13:40,0.316,0.196,0.315,0.301,0.298,0.159,0.097,south,9.5,No
2018/04/19,13:50,0.312,0.195,0.319,0.301,0.297,0.160,0.096,south,10.3,No
2018/04/19,14:00,0.314,0.196,0.316,0.305,0.296,0.160,0.097,south,9.5,No
2018/04/19,14:10,0.316,0.195,0.315,0.302,0.298,0.159,0.096,south,11.5,No
2018/04/19,14:20,0.314,0.195,0.316,0.301,0.299,0.160,0.095,south,11.1,No
2018/04/19,14:30,0.311,0.196,0.319,0.304,0.296,0.160,0.097,south,12.0,No
2018/04/19,14:40,0.314,0.195,0.317,0.304,0.297,0.159,0.096,south,12.0,No
2018/04/19,14:50,0.315,0.196,0.316,0.302,0.300,0.161,0.097,south,12.9,No
2018/04/19,15:00,0.312,0.196,0.319,0.304,0.296,0.159,0.097,south,11.8,No
2018/04/19,15:10,0.313,0.195,0.319,0.304,0.298,0.161,0.096,south,14.5,No
2018/04/19,15:20,0.315,0.196,0.316,0.305,0.300,0.161,0.097,south,12.9,No
2018/04/19,15:30,0.312,0.197,0.321,0.304,0.298,0.159,0.097,south,13.1,No
2018/04/19,15:40,0.312,0.196,0.318,0.305,0.295,0.159,0.097,south,13.4,No
2018/04/19,15:50,0.317,0.196,0.320,0.304,0.301,0.159,0.097,south,12.3,No
2018/04/19,16:00,0.315,0.198,0.318,0.304,0.297,0.160,0.096,south,11.7,No
2018/04/19,16:10,0.315,0.197,0.322,0.304,0.297,0.160,0.097,south,11.7,No
2018/04/19,16:20,0.314,0.197,0.318,0.305,0.299,0.160,0.097,south-southwest,11.8,No
2018/04/19,16:30,0.314,0.197,0.321,0.304,0.296,0.161,0.097,south-southwest,10.9,No
2018/04/19,16:40,0.316,0.196,0.318,0.306,0.301,0.160,0.097,south-southwest,10.0,No
2018/04/19,16:50,0.313,0.196,0.320,0.304,0.299,0.161,0.097,south,9.8,No
2018/04/19,17:00,0.316,0.196,0.319,0.306,0.298,0.160,0.097,south,9.3,No
2018/04/19,17:10,0.313,0.197,0.320,0.303,0.300,0.160,0.096,south,10.4,No
2018/04/19,17:20,0.315,0.196,0.320,0.305,0.298,0.160,0.098,south-southwest,11.5,No
2018/04/19,17:30,0.314,0.196,0.319,0.304,0.301,0.160,0.096,south-southwest,10.3,No
2018/04/19,17:40,0.314,0.196,0.320,0.305,0.299,0.160,0.097,south-southwest,11.2,No
2018/04/19,17:50,0.315,0.196,0.320,0.304,0.302,0.160,0.098,south-southwest,11.7,No
2018/04/19,18:00,0.315,0.195,0.319,0.306,0.299,0.160,0.097,south,11.7,No
2018/04/19,18:10,0.314,0.198,0.319,0.304,0.302,0.160,0.096,south-southwest,11.1,No
2018/04/19,18:20,0.317,0.196,0.320,0.306,0.299,0.161,0.097,south,10.6,No
2018/04/19,18:30,0.316,0.197,0.321,0.304,0.302,0.161,0.097,south-southwest,11.1,No
2018/04/19,18:40,0.314,0.197,0.318,0.306,0.299,0.159,0.097,south-southwest,10.3,No
2018/04/19,18:50,0.313,0.197,0.322,0.304,0.301,0.160,0.096,south-southwest,8.9,No
2018/04/19,19:00,0.315,0.197,0.319,0.305,0.300,0.160,0.097,south-southwest,7.8,No
2018/04/19,19:10,0.314,0.197,0.320,0.304,0.300,0.159,0.097,south,7.6,No
2018/04/19,19:20,0.316,0.197,0.318,0.305,0.301,0.161,0.097,south-southwest,7.9,No
2018/04/19,19:30,0.315,0.196,0.321,0.305,0.300,0.160,0.096,south-southwest,9.0,No
2018/04/19,19:40,0.317,0.196,0.319,0.305,0.300,0.160,0.097,south-southwest,8.8,No
2018/04/19,19:50,0.315,0.196,0.319,0.307,0.298,0.161,0.097,south-southwest,8.7,No
2018/04/19,20:00,0.315,0.197,0.321,0.304,0.301,0.160,0.096,south-southwest,8.7,No
2018/04/19,20:10,0.315,0.197,0.318,0.307,0.298,0.160,0.097,south-southwest,9.5,No
2018/04/19,20:20,0.315,0.196,0.320,0.305,0.302,0.161,0.097,south-southwest,8.8,No
2018/04/19,20:30,0.315,0.197,0.319,0.306,0.298,0.161,0.097,south-southwest,8.8,No
2018/04/19,20:40,0.314,0.196,0.321,0.304,0.300,0.161,0.097,south-southwest,7.6,No
2018/04/19,20:50,0.317,0.198,0.320,0.304,0.300,0.161,0.096,south-southwest,8.1,No
2018/04/19,21:00,0.314,0.197,0.319,0.307,0.299,0.161,0.097,south-southwest,7.2,No
2018/04/19,21:10,0.316,0.197,0.320,0.305,0.299,0.161,0.096,south-southwest,7.1,No
2018/04/19,21:20,0.315,0.198,0.319,0.307,0.299,0.161,0.097,south-southwest,6.3,No
2018/04/19,21:30,0.316,0.196,0.320,0.304,0.299,0.160,0.097,south-southwest,7.2,No
2018/04/19,21:40,0.315,0.197,0.319,0.306,0.298,0.161,0.096,south-southwest,7.0,No
2018/04/19,21:50,0.316,0.197,0.321,0.305,0.301,0.161,0.098,south-southwest,6.7,No
2018/04/19,22:00,0.315,0.196,0.319,0.304,0.299,0.160,0.097,south-southwest,6.4,No
2018/04/19,22:10,0.314,0.197,0.321,0.305,0.300,0.160,0.097,south-southwest,4.4,No
2018/04/19,22:20,0.316,0.198,0.320,0.304,0.298,0.161,0.097,south-southwest,3.4,No
2018/04/19,22:30,0.316,0.197,0.320,0.306,0.302,0.161,0.097,south-southwest,4.7,No
2018/04/19,22:40,0.316,0.197,0.321,0.303,0.298,0.160,0.097,south-southwest,4.9,No
2018/04/19,22:50,0.314,0.197,0.320,0.307,0.300,0.161,0.097,south-southwest,4.2,No
2018/04/19,23:00,0.316,0.198,0.321,0.305,0.300,0.161,0.097,southwest,3.7,No
2018/04/19,23:10,0.315,0.197,0.319,0.306,0.300,0.162,0.097,southwest,3.1,No
2018/04/19,23:20,0.316,0.197,0.321,0.305,0.300,0.160,0.098,south,1.9,No
2018/04/19,23:30,0.316,0.197,0.320,0.306,0.298,0.161,0.097,south-southwest,5.1,No
2018/04/19,23:40,0.316,0.197,0.321,0.305,0.299,0.161,0.097,south-southwest,5.7,No
2018/04/19,23:50,0.316,0.198,0.322,0.305,0.299,0.160,0.097,west-southwest,3.7,Yes
